Weather History for KMWM - October, 2010

Change the Weather History Date:

Wednesday, October 27, 2010

  Actual Average Record
Temperature  
Mean Temperature 36 °F -  
Max Temperature 39 °F 57 °F 78 °F (1989)
Min Temperature 33 °F 34 °F 9 °F (1976)
Degree Days  
Heating Degree Days 29    
Moisture  
Dew Point 31 °F    
Average Humidity 81    
Maximum Humidity 93    
Minimum Humidity 65    
Precipitation  
Precipitation 0.00 in - - ()
Sea Level Pressure  
Sea Level Pressure 29.35 in    
Wind  
Wind Speed 32 mph (West)    
Max Wind Speed 39 mph    
Max Gust Speed 52 mph    
Visibility 8 miles    
Events Snow    
Averages and records for this station are not official NWS values.
T = Trace of Precipitation, MM = Missing Value Source: NWS Daily Summary

Daily Weather History Graph

Daily Weather History Graph

Search for Another Location

Airport or City:

Trip Planner

Search our weather history database for the weather conditions in past years. The results will help you decide how hot, cold, wet, or windy it might be!

Date:

Astronomy

Oct. 27, 2010 Rise Set
Actual Time 7:50 AM CDT 6:17 PM CDT
Civil Twilight 7:20 AM CDT 6:47 PM CDT
Nautical Twilight 6:46 AM CDT 7:21 PM CDT
Astronomical Twilight 6:13 AM CDT 7:54 PM CDT
Moon 9:34 PM CDT (10/27) 12:32 PM CDT (10/27)
Length of Visible Light 11h 26m
Length of Day
10h 27m
Waning Gibbous, 79% of the Moon is Illuminated
Oct 27
Waning Gibbous
Oct 30
Last Quarter
Nov 5
New
Nov 13
First Quarter
Nov 21
Full

Hourly Weather History & Observations

Time (CDT) Temp. Windchill Dew Point Humidity Pressure Visibility Wind Dir Wind Speed Gust Speed Precip Events Conditions
12:33 AM 39.2 °F 26.3 °F 30.2 °F 70% 29.14 in 10.0 mi West 36.8 mph 50.6 mph N/A   Overcast
12:53 AM 39.2 °F 27.2 °F 28.4 °F 65% 29.15 in 10.0 mi West 31.1 mph 51.8 mph N/A   Overcast
1:13 AM 39.2 °F 26.8 °F 30.2 °F 70% 29.15 in 10.0 mi West 33.4 mph 43.7 mph N/A   Overcast
1:33 AM 39.2 °F 27.2 °F 28.4 °F 65% 29.15 in 10.0 mi WSW 31.1 mph 40.3 mph N/A   Mostly Cloudy
1:53 AM 39.2 °F 26.1 °F 28.4 °F 65% 29.16 in 10.0 mi WSW 38.0 mph 46.0 mph N/A   Mostly Cloudy
2:33 AM 37.4 °F 25.2 °F 28.4 °F 70% 29.16 in 10.0 mi WSW 28.8 mph 40.3 mph N/A   Scattered Clouds
2:53 AM 39.2 °F 26.5 °F 28.4 °F 65% 29.16 in 10.0 mi WSW 35.7 mph 44.9 mph N/A   Scattered Clouds
3:13 AM 37.4 °F 25.2 °F 28.4 °F 70% 29.17 in 10.0 mi WSW 28.8 mph 47.2 mph N/A   Clear
3:33 AM 37.4 °F 26.4 °F 28.4 °F 70% 29.18 in 10.0 mi WSW 23.0 mph 35.7 mph N/A   Scattered Clouds
3:53 AM 37.4 °F 24.2 °F 28.4 °F 70% 29.17 in 10.0 mi WSW 34.5 mph 43.7 mph N/A   Clear
4:13 AM 37.4 °F 23.5 °F 26.6 °F 65% 29.18 in 10.0 mi West 39.1 mph 50.6 mph N/A   Scattered Clouds
4:33 AM 37.4 °F 25.2 °F 26.6 °F 65% 29.18 in 10.0 mi WSW 28.8 mph 39.1 mph N/A   Mostly Cloudy
4:53 AM 37.4 °F 25.6 °F 28.4 °F 70% 29.19 in 10.0 mi WSW 26.5 mph 41.4 mph N/A   Scattered Clouds
5:13 AM 37.4 °F 24.4 °F 26.6 °F 65% 29.19 in 10.0 mi West 33.4 mph 51.8 mph N/A   Clear
5:33 AM 37.4 °F 24.2 °F 26.6 °F 65% 29.20 in 10.0 mi West 34.5 mph 43.7 mph N/A   Scattered Clouds
5:53 AM 37.4 °F 26.1 °F 28.4 °F 70% 29.19 in 10.0 mi WSW 24.2 mph 35.7 mph N/A   Mostly Cloudy
6:13 AM 37.4 °F 23.8 °F 26.6 °F 65% 29.20 in 10.0 mi WSW 36.8 mph 50.6 mph N/A   Overcast
6:33 AM 37.4 °F 25.0 °F 28.4 °F 70% 29.21 in 10.0 mi West 29.9 mph 42.6 mph N/A   Overcast
6:53 AM 37.4 °F 24.4 °F 26.6 °F 65% 29.22 in 10.0 mi West 33.4 mph 49.5 mph N/A   Overcast
7:13 AM 35.6 °F 22.3 °F 30.2 °F 81% 29.23 in 4.0 mi West 31.1 mph 50.6 mph N/A Snow Light Snow
7:33 AM 33.8 °F 19.2 °F 30.2 °F 87% 29.24 in 2.5 mi WSW 34.5 mph 47.2 mph N/A Snow Light Snow
7:53 AM 33.8 °F 19.9 °F 30.2 °F 87% 29.24 in 2.5 mi WSW 31.1 mph 46.0 mph N/A Snow Light Snow
8:13 AM 33.8 °F 20.8 °F 30.2 °F 87% 29.25 in 2.0 mi WSW 26.5 mph 41.4 mph N/A Snow Light Snow
8:33 AM 33.8 °F 19.6 °F 32.0 °F 93% 29.25 in 1.5 mi WSW 32.2 mph 43.7 mph N/A Snow Light Snow
8:53 AM 33.8 °F 20.5 °F 30.2 °F 87% 29.27 in 1.8 mi WSW 27.6 mph 41.4 mph N/A Snow Light Snow
9:13 AM 33.8 °F 19.9 °F 32.0 °F 93% 29.27 in 4.0 mi WSW 31.1 mph 40.3 mph N/A Snow Light Snow
9:33 AM 33.8 °F 19.4 °F 32.0 °F 93% 29.28 in 7.0 mi WSW 33.4 mph 42.6 mph N/A Snow Light Snow
9:53 AM 33.8 °F 20.1 °F 32.0 °F 93% 29.29 in 10.0 mi WSW 29.9 mph 38.0 mph N/A Snow Light Snow
10:13 AM 33.8 °F 18.8 °F 32.0 °F 93% 29.30 in 4.0 mi WSW 36.8 mph 44.9 mph N/A Snow Light Snow
10:33 AM 35.6 °F 21.5 °F 32.0 °F 87% 29.31 in 7.0 mi WSW 35.7 mph 42.6 mph N/A   Overcast
10:53 AM 35.6 °F 22.1 °F 32.0 °F 87% 29.33 in 10.0 mi WSW 32.2 mph 46.0 mph N/A   Overcast
11:13 AM 35.6 °F 22.7 °F 33.8 °F 93% 29.34 in 7.0 mi West 28.8 mph 42.6 mph N/A   Overcast
11:33 AM 35.6 °F 22.1 °F 32.0 °F 87% 29.35 in 4.0 mi WSW 32.2 mph 40.3 mph N/A   Overcast
11:53 AM 35.6 °F 21.5 °F 32.0 °F 87% 29.36 in 10.0 mi West 35.7 mph 40.3 mph N/A   Overcast
12:13 PM 37.4 °F 25.4 °F 32.0 °F 81% 29.38 in 10.0 mi West 27.6 mph 41.4 mph N/A   Overcast
12:33 PM 37.4 °F 24.4 °F 32.0 °F 81% 29.39 in 10.0 mi West 33.4 mph 44.9 mph N/A   Overcast
12:53 PM 37.4 °F 24.2 °F 32.0 °F 81% 29.40 in 10.0 mi West 34.5 mph 39.1 mph N/A   Overcast
1:13 PM 37.4 °F 24.4 °F 32.0 °F 81% 29.42 in 10.0 mi West 33.4 mph 41.4 mph N/A   Overcast
1:33 PM 35.6 °F 22.5 °F 33.8 °F 93% 29.44 in 2.0 mi West 29.9 mph 36.8 mph N/A Snow Light Snow
1:53 PM 35.6 °F 22.5 °F 33.8 °F 93% 29.45 in 3.0 mi West 29.9 mph 39.1 mph N/A Snow Light Snow
2:13 PM 35.6 °F 22.3 °F 33.8 °F 93% 29.46 in 10.0 mi West 31.1 mph 38.0 mph N/A   Overcast
2:33 PM 37.4 °F 24.2 °F 33.8 °F 87% 29.47 in 10.0 mi West 34.5 mph - N/A   Overcast
2:53 PM 37.4 °F 24.4 °F 33.8 °F 87% 29.49 in 10.0 mi West 33.4 mph 40.3 mph N/A   Overcast
3:13 PM 37.4 °F 24.8 °F 33.8 °F 87% 29.51 in 10.0 mi West 31.1 mph 39.1 mph N/A   Overcast
3:33 PM 37.4 °F 24.6 °F 33.8 °F 87% 29.53 in 7.0 mi West 32.2 mph 41.4 mph N/A   Drizzle
3:53 PM 37.4 °F 25.0 °F 33.8 °F 87% 29.55 in 7.0 mi West 29.9 mph 38.0 mph N/A   Light Drizzle
4:13 PM 37.4 °F 24.2 °F 35.6 °F 93% 29.58 in 5.0 mi West 34.5 mph 41.4 mph N/A   Light Drizzle
4:33 PM 37.4 °F 25.2 °F 35.6 °F 93% 29.60 in 4.0 mi West 28.8 mph 38.0 mph N/A   Drizzle
4:53 PM 37.4 °F 25.4 °F 35.6 °F 93% 29.62 in 5.0 mi West 27.6 mph 38.0 mph N/A   Light Drizzle
5:13 PM 37.4 °F 24.8 °F 33.8 °F 87% 29.64 in 7.0 mi West 31.1 mph 39.1 mph N/A   Light Drizzle
5:33 PM 37.4 °F 25.9 °F 35.6 °F 93% 29.66 in 10.0 mi West 25.3 mph 32.2 mph N/A   Light Drizzle
5:53 PM 37.4 °F 25.0 °F 33.8 °F 87% 29.68 in 10.0 mi West 29.9 mph 41.4 mph N/A   Light Drizzle
6:13 PM 37.4 °F 24.8 °F 33.8 °F 87% 29.69 in 10.0 mi West 31.1 mph 43.7 mph N/A   Light Drizzle
6:33 PM 37.4 °F 24.4 °F 33.8 °F 87% 29.71 in 10.0 mi West 33.4 mph 41.4 mph N/A   Overcast
6:53 PM 37.4 °F 24.8 °F 33.8 °F 87% 29.73 in 10.0 mi West 31.1 mph 40.3 mph N/A   Overcast
7:13 PM 37.4 °F 25.9 °F 33.8 °F 87% 29.75 in 10.0 mi West 25.3 mph 38.0 mph N/A   Overcast
7:33 PM 37.4 °F 25.6 °F 33.8 °F 87% 29.77 in 10.0 mi West 26.5 mph 39.1 mph N/A   Overcast
7:53 PM 35.6 °F 22.1 °F 33.8 °F 93% 29.79 in 10.0 mi WNW 32.2 mph 40.3 mph N/A   Overcast
8:13 PM 37.4 °F 25.4 °F 33.8 °F 87% 29.81 in 10.0 mi West 27.6 mph 39.1 mph N/A   Overcast
8:33 PM 37.4 °F 25.0 °F 32.0 °F 81% 29.82 in 10.0 mi WNW 29.9 mph 41.4 mph N/A   Overcast
8:53 PM 37.4 °F 24.2 °F 30.2 °F 75% 29.84 in 10.0 mi WNW 34.5 mph 43.7 mph N/A   Overcast
9:13 PM 35.6 °F 23.4 °F 32.0 °F 87% 29.86 in 10.0 mi WNW 25.3 mph 38.0 mph N/A   Overcast
9:33 PM 35.6 °F 23.2 °F 30.2 °F 81% 29.88 in 10.0 mi WNW 26.5 mph 32.2 mph N/A   Overcast
9:53 PM 35.6 °F 23.2 °F 30.2 °F 81% 29.89 in 10.0 mi WNW 26.5 mph 35.7 mph N/A   Overcast
10:13 PM 35.6 °F 22.7 °F 30.2 °F 81% 29.90 in 10.0 mi WNW 28.8 mph 40.3 mph N/A   Overcast
10:33 PM 35.6 °F 22.7 °F 30.2 °F 81% 29.91 in 10.0 mi WNW 28.8 mph 33.4 mph N/A   Overcast
10:53 PM 35.6 °F 23.4 °F 30.2 °F 81% 29.93 in 10.0 mi WNW 25.3 mph 35.7 mph N/A   Overcast
11:13 PM 35.6 °F 24.2 °F 30.2 °F 81% 29.94 in 10.0 mi WNW 21.9 mph 36.8 mph N/A   Overcast
11:33 PM 35.6 °F 23.0 °F 30.2 °F 81% 29.95 in 10.0 mi WNW 27.6 mph 39.1 mph N/A   Overcast
11:53 PM 35.6 °F 24.0 °F 30.2 °F 81% 29.96 in 10.0 mi WNW 23.0 mph 38.0 mph N/A   Overcast